Date,TemperatureHighF,TemperatureAvgF,TemperatureLowF,DewpointHighF,DewpointAvgF,DewpointLowF,HumidityHigh,HumidityAvg,HumidityLow,PressureMaxIn,PressureMinIn,WindSpeedMaxMPH,WindSpeedAvgMPH,GustSpeedMaxMPH,PrecipitationSumIn
2013-1-1,32.8,29.7,22.9,29.0,24.1,14.0,89,80,67,30.12,29.99,7,3,15,0.00
2013-1-2,26.9,19.5,10.5,16.3,13.2,7.9,91,77,61,30.33,30.10,6,2,11,0.00
2013-1-3,30.6,17.6,0.0,21.8,11.3,-3.2,91,77,54,30.33,30.18,6,2,11,0.00
2013-1-4,31.2,28.5,26.9,22.7,21.0,19.3,84,73,67,30.24,30.13,9,6,22,0.00
2013-1-5,31.1,26.5,22.0,23.4,21.1,19.1,90,80,71,30.47,30.23,8,3,20,0.00
2013-1-6,38.1,31.4,23.5,31.8,26.8,20.8,92,83,70,30.24,30.04,6,1,12,0.14
2013-1-7,35.3,31.9,18.8,30.8,26.5,16.5,91,80,72,30.48,30.21,6,2,13,0.02
2013-1-8,43.2,23.6,10.6,27.5,18.5,8.2,93,82,52,30.47,30.37,4,0,6,0.12
2013-1-9,46.7,29.9,15.8,39.8,25.7,13.9,94,85,68,30.48,30.25,8,2,15,0.05
2013-1-10,41.5,33.3,24.2,29.9,27.5,22.5,95,80,59,30.68,30.48,3,0,9,0.00
2013-1-11,42.9,36.4,33.0,35.9,32.8,28.4,98,87,69,30.49,30.11,2,0,4,0.38
2013-1-12,41.6,36.3,34.2,41.2,35.9,33.8,99,99,98,30.20,30.10,0,0,0,0.00
2013-1-13,46.5,39.3,34.6,46.2,39.0,34.3,100,99,98,30.11,29.95,2,0,2,0.12
2013-1-14,46.2,38.2,31.6,45.8,32.5,24.2,100,81,57,30.40,29.94,8,2,13,0.04
2013-1-15,33.4,29.2,22.4,27.7,24.5,20.9,95,83,69,30.45,30.21,2,0,6,0.00
2013-1-16,34.7,31.2,29.1,33.2,29.3,27.4,95,93,87,30.22,29.93,3,1,7,0.07
2013-1-17,34.3,32.2,30.5,29.3,27.9,25.4,90,84,77,30.21,30.02,5,1,8,0.03
2013-1-18,30.8,22.7,14.6,25.2,12.7,6.5,91,66,49,30.55,30.14,8,3,18,0.02
2013-1-19,50.4,35.9,14.3,28.5,20.1,12.2,91,57,30,30.35,29.86,9,2,18,0.13
2013-1-20,45.6,34.1,18.3,31.1,19.6,10.2,73,56,42,30.17,29.73,13,6,28,0.01
2013-1-21,23.9,20.0,12.0,19.7,13.2,2.6,87,75,64,30.14,29.95,7,2,13,0.00
2013-1-22,12.0,8.1,3.2,4.8,0.4,-3.0,84,71,55,30.34,30.05,9,4,16,0.00
2013-1-23,14.9,6.5,-0.1,5.4,0.3,-3.3,88,76,53,30.38,30.22,8,2,12,0.00
2013-1-24,21.2,9.6,-0.9,8.2,1.6,-4.1,88,72,42,30.63,30.20,7,2,15,0.00
2013-1-25,15.7,10.4,1.8,12.3,6.3,-1.7,90,83,61,30.63,30.14,2,0,5,0.00
2013-1-26,27.1,20.0,13.1,20.8,15.6,10.7,92,83,67,30.51,30.17,5,1,9,0.04
2013-1-27,31.0,20.1,8.7,20.7,14.0,6.1,92,79,53,30.66,30.48,3,0,6,0.04
2013-1-28,44.3,31.3,25.7,44.0,29.9,20.6,99,94,79,30.49,30.06,1,0,3,0.19
2013-1-29,46.1,41.6,36.6,45.7,41.3,36.3,99,99,99,30.13,29.92,0,0,3,0.15
2013-1-30,56.8,45.3,33.4,56.5,45.0,33.1,100,99,94,29.92,29.24,7,0,14,0.73
2013-1-31,52.1,30.1,22.2,50.4,23.5,13.2,94,77,58,29.87,29.19,12,7,28,0.18